Location: Góry Miechowskie
(50.3599°N, 20.1803°E)
Time: 14:55:46
(UTC+00:00)

A-11 Canister half - Pass Details

Date: 21 September 2024
Orbit: 1515 x 1684 km, 47.2° (Epoch: 07 October)

Event Time Altitude Azimuth Distance (km) Brightness Sun altitude
Rises 16:09:42 0° 233° (SW) 4,766 12.7 3.8°
Reaches altitude 10° 16:12:53 10° 229° (SW) 3,761 12.0 3.3°
Maximum altitude 16:22:01 56° 155° (SSE) 1,789 9.3 1.9°
Drops below altitude 10° 16:30:57 10° 81° (E) 3,682 10.4 0.4°
Sets 16:34:02 0° 77° (ENE) 4,661 10.9 -0.1°
